Location: Mercogliano
(40.9167°N, 14.7333°E)
Time: 04:16:47
(UTC+00:00)

CZ-2C R/B - Pass Details

Date: 18 September 2020
Orbit: 785 x 870 km, 98.2° (Epoch: 25 October)

Event Time Altitude Azimuth Distance (km) Brightness Sun altitude
Rises 17:38:04 0° 27° (NNE) 3,421 5.7 -7.1°
Reaches altitude 10° 17:40:58 10° 42° (NE) 2,493 4.8 -7.7°
Maximum altitude 17:45:15 23° 93° (E) 1,775 3.8 -8.5°
Drops below altitude 10° 17:49:32 10° 143° (SE) 2,505 4.7 -9.3°
Sets 17:52:27 0° 158° (SSE) 3,441 5.6 -9.8°
